CZ-2D DEB, 44619

Orbit data source: Space-Track

CZ-2D DEB, 44619 is space debris in SSO originally from a launch on Sat, 02 Jun 2018 UTC launched from the Jiuquan Satellite Launch Center, China (JSC). Debris objects in space refer to the collection of defunct objects orbiting the Earth. Examples of debris include non-operational satellites, rocket bodies, and fragments generated from explosions, collisions, or faulty payload assembly.

Loading next visibility...
Identifier
44619, 2018-048F
Orbit
SSO
Country
Flag of CNCN / PRC
Related business
Manufacturer
CALT
Mission
Spacecraft
Bus & Motor
Unknown
Mass
1 kg wet, 1 kg dry
Launch date (UTC)
2018-06-02 (7 years ago)
Launch vehicle
Unknown
Launch site
Jiuquan Satellite Launch Center, China (JSC)
Object type
Payload
Rocket body
Debris
Shape & HBR
Cone, 0.1 m
Radar Cross Section
0.025 m², Small (<0.1 m²)

Expand to show TLE details & history
Last TLE update: 2 days ago

TLE from 2 days ago
0 CZ-2D DEB
1 44619U 18048F   25306.46866297  .00007778  00000-0  61600-3 0  9994
2 44619  98.3017 132.8131 0012605 259.4175 100.5627 15.00834804397609
Epoch: 2025-11-02T11:14Z
TLE epoch observation values (Epoch: 2025-11-02T11:14:52.480Z)
Latitude
-0.00007°
Longitude
-77.88951°
Altitude
568.973 km
Speed
7.576 km/s
True Right ascension
08h 51m 15s
True Declination
0° 00' 00"
Sunlit
Object was in daylight at epoch
Visualization orbit readout
Latitude
Unknown
Longitude
Unknown
Altitude
Unknown
Speed
Unknown
Apparent Right ascension
Unknown
Apparent Declination
Unknown
Sunlit
N/A
Visualization observer readout
Local Sidereal Time
20:00:54
Azimuth
Unknown
Elevation
Unknown
Doppler factor
Unknown
Orbital elements
Apogee altitude
570.1 km
Perigee altitude
552.605 km
Semi-major axis
6,939.489 km
Eccentricity
0.00126
Inclination
98.3017°
RAAN
132.8131°
Arg. of periapsis
259.4175°
True anomaly
100.70465°
Mean anomaly
100.5627°
Eccentric anomaly
100.63368°
Mean motion
3.7545 °/min
Orbital period
95.88 mins
BSTAR
0.000616
Loading maneuver chart data...
Computing Atmospheric mass density...
Loading historical data...
Loading historical data...
Loading historical data...
Loading historical data...
Loading historical data...
Loading historical data...
Loading historical data...
Other satellites on launch #48 in the year 2018 (2018-06-02 UTC)

Documentation

Showing up to 5 results
|